Weather History for Hot Springs, VA

Change the Weather History Date:

Friday, January 5, 2001

  Actual Average Record
Temperature  
Mean Temperature 20 °F -  
Max Temperature 26 °F 34 °F 59 °F (2007)
Min Temperature 14 °F 21 °F 1 °F (1999)
Degree Days  
Heating Degree Days 45    
Moisture  
Dew Point 22 °F    
Average Humidity 95    
Maximum Humidity 100    
Minimum Humidity 74    
Precipitation  
Precipitation 0.00 in - - ()
Sea Level Pressure  
Sea Level Pressure 29.59 in    
Wind  
Wind Speed 18 mph (West)    
Max Wind Speed 28 mph    
Max Gust Speed 34 mph    
Visibility 8 miles    
Events      
Averages and records for this station are not official NWS values.
T = Trace of Precipitation, MM = Missing Value Source: NWS Daily Summary

Daily Weather History Graph

Daily Weather History Graph

Search for Another Location

Airport:

Trip Planner

Search our weather history database for the weather conditions in past years. The results will help you decide how hot, cold, wet, or windy it might be!

Date:

Astronomy

Jan. 05, 2001 Rise Set
Actual Time 7:35 AM EST 5:14 PM EST
Civil Twilight 7:06 AM EST 5:43 PM EST
Nautical Twilight 6:33 AM EST 6:16 PM EST
Astronomical Twilight 6:01 AM EST 6:48 PM EST
Moon 1:50 PM EST (1/5) 2:46 AM EST (1/5)
Length of Visible Light 10h 37m
Length of Day
9h 38m
Waxing Gibbous, 78% of the Moon is Illuminated
Jan 5
Waxing Gibbous
Jan 9
Full
Jan 16
Last Quarter
Jan 24
New
Feb 1
First Quarter

Hourly Weather History & Observations

Time (EST) Temp. Windchill Dew Point Humidity Pressure Visibility Wind Dir Wind Speed Gust Speed Precip Events Conditions
12:00 AM 14.0 °F -2.0 °F 14.0 °F 100% 29.83 in 2.0 mi West 16.1 mph - N/A   Mostly Cloudy
12:20 AM 14.0 °F -0.2 °F 14.0 °F 100% 29.83 in 1.0 mi West 12.7 mph - N/A   Overcast
12:40 AM 14.0 °F -0.8 °F 14.0 °F 100% 29.81 in 7.0 mi West 13.8 mph - N/A   Scattered Clouds
1:00 AM 15.8 °F 2.1 °F 15.8 °F 100% 29.80 in 7.0 mi West 12.7 mph - N/A   Clear
1:20 AM 15.8 °F 0.3 °F 15.8 °F 100% 29.79 in 10.0 mi West 16.1 mph - N/A   Clear
1:40 AM 15.8 °F 0.3 °F 15.8 °F 100% 29.78 in 10.0 mi West 16.1 mph - N/A   Scattered Clouds
2:00 AM 17.6 °F 1.7 °F 17.6 °F 100% 29.77 in 4.0 mi West 18.4 mph 24.2 mph N/A   Mostly Cloudy
2:20 AM 17.6 °F 2.7 °F 17.6 °F 100% 29.77 in 2.0 mi West 16.1 mph 21.9 mph N/A   Overcast
2:40 AM 17.6 °F 3.2 °F 17.6 °F 100% 29.77 in 4.0 mi West 15.0 mph - N/A   Mostly Cloudy
3:00 AM 17.6 °F 2.7 °F 17.6 °F 100% 29.76 in 7.0 mi West 16.1 mph - N/A   Mostly Cloudy
3:20 AM 19.4 °F 5.0 °F 19.4 °F 100% 29.74 in 4.0 mi West 16.1 mph - N/A   Overcast
3:40 AM 19.4 °F 4.5 °F 19.4 °F 100% 29.74 in 5.0 mi West 17.3 mph - N/A   Overcast
4:00 AM 19.4 °F 5.5 °F 19.4 °F 100% 29.72 in 3.0 mi West 15.0 mph 19.6 mph N/A   Overcast
4:22 AM 24.8 °F 12.4 °F 24.8 °F 100% 29.71 in 10.0 mi West 15.0 mph - N/A   Overcast
4:40 AM 21.2 °F 7.8 °F 19.4 °F 93% 29.69 in 10.0 mi West 15.0 mph - N/A   Overcast
5:00 AM 21.2 °F 7.8 °F 21.2 °F 100% 29.68 in 10.0 mi West 15.0 mph - N/A   Overcast
5:20 AM 21.2 °F 6.4 °F 21.2 °F 100% 29.67 in 7.0 mi West 18.4 mph - N/A   Overcast
5:40 AM 21.2 °F 6.8 °F 21.2 °F 100% 29.66 in 4.0 mi WSW 17.3 mph - N/A   Overcast
6:00 AM 23.0 °F 11.1 °F 23.0 °F 100% 29.66 in 10.0 mi WSW 12.7 mph - N/A   Overcast
6:20 AM 23.0 °F 9.2 °F 21.2 °F 93% 29.67 in 10.0 mi WSW 17.3 mph - N/A   Overcast
6:40 AM 23.0 °F 9.6 °F 21.2 °F 93% 29.65 in 10.0 mi West 16.1 mph 21.9 mph N/A   Overcast
7:00 AM 24.8 °F 12.9 °F 21.2 °F 86% 29.64 in 10.0 mi WSW 13.8 mph - N/A   Overcast
7:20 AM 24.8 °F 10.7 °F 21.2 °F 86% 29.63 in 10.0 mi WSW 19.6 mph 26.5 mph N/A   Overcast
7:40 AM 26.6 °F 13.8 °F 21.2 °F 80% 29.61 in 10.0 mi WSW 17.3 mph 26.5 mph N/A   Overcast
8:00 AM 26.6 °F 12.4 °F 19.4 °F 74% 29.61 in 10.0 mi West 21.9 mph 27.6 mph N/A   Overcast
8:22 AM 26.6 °F 12.7 °F 19.4 °F 74% 29.60 in 10.0 mi West 20.7 mph - N/A   Unknown
8:40 AM 26.6 °F 11.7 °F 21.2 °F 80% 29.59 in 10.0 mi West 24.2 mph 32.2 mph N/A   Scattered Clouds
9:00 AM 24.8 °F 10.3 °F 21.2 °F 86% 29.58 in 10.0 mi West 20.7 mph 26.5 mph N/A   Mostly Cloudy
9:20 AM 24.8 °F 10.0 °F 21.2 °F 86% 29.56 in 0.5 mi West 21.9 mph 31.1 mph N/A   Overcast
9:40 AM 24.8 °F 10.0 °F 24.8 °F 100% 29.56 in 0.2 mi West 21.9 mph 29.9 mph N/A   Overcast
10:00 AM 24.8 °F 10.3 °F 24.8 °F 100% 29.55 in 0.8 mi West 20.7 mph 27.6 mph N/A   Overcast
10:20 AM 24.8 °F 10.3 °F 24.8 °F 100% 29.54 in 0.2 mi West 20.7 mph 27.6 mph N/A   Overcast
10:42 AM 26.6 °F 12.7 °F 26.6 °F 100% 29.53 in 10.0 mi West 20.7 mph 27.6 mph N/A   Overcast
11:00 AM 26.6 °F 12.7 °F 26.6 °F 100% 29.52 in 10.0 mi West 20.7 mph 27.6 mph N/A   Overcast
11:20 AM 24.8 °F 10.3 °F 24.8 °F 100% 29.51 in 10.0 mi West 20.7 mph 31.1 mph N/A   Overcast
11:40 AM 24.8 °F 9.6 °F 24.8 °F 100% 29.50 in 10.0 mi West 23.0 mph 31.1 mph N/A   Overcast
12:00 PM 24.8 °F 9.3 °F 24.8 °F 100% 29.49 in 10.0 mi West 24.2 mph 34.5 mph N/A   Overcast
12:20 PM 26.6 °F 12.4 °F 24.8 °F 93% 29.47 in 10.0 mi West 21.9 mph 34.5 mph N/A   Overcast
12:40 PM 26.6 °F 11.4 °F 24.8 °F 93% 29.46 in 10.0 mi WNW 25.3 mph 33.4 mph N/A   Overcast
1:00 PM 26.6 °F 10.8 °F 24.8 °F 93% 29.45 in 10.0 mi West 27.6 mph 34.5 mph N/A   Overcast
1:20 PM 26.6 °F 12.0 °F 24.8 °F 93% 29.46 in 10.0 mi WNW 23.0 mph 33.4 mph N/A   Overcast
1:40 PM - - - N/A% 29.46 in - WNW 21.9 mph 33.4 mph N/A   Unknown
2:00 PM 26.6 °F 11.7 °F 24.8 °F 93% 29.46 in 10.0 mi WNW 24.2 mph 34.5 mph N/A   Overcast
2:20 PM 26.6 °F 12.7 °F 24.8 °F 93% 29.46 in 10.0 mi WNW 20.7 mph 33.4 mph N/A   Unknown
2:40 PM 26.6 °F 12.7 °F 24.8 °F 93% 29.47 in 7.0 mi WNW 20.7 mph 28.8 mph N/A   Overcast
3:00 PM 26.6 °F 12.7 °F 24.8 °F 93% 29.46 in 5.0 mi WNW 20.7 mph 32.2 mph N/A   Overcast
3:22 PM 26.6 °F 13.1 °F 26.6 °F 100% 29.47 in 7.0 mi West 19.6 mph 31.1 mph N/A   Overcast
3:40 PM 26.6 °F 12.4 °F 24.8 °F 93% 29.47 in 7.0 mi WNW 21.9 mph 26.5 mph N/A   Overcast
4:00 PM 26.6 °F 11.7 °F 24.8 °F 93% 29.48 in 10.0 mi West 24.2 mph 31.1 mph N/A   Overcast
4:20 PM 26.6 °F 12.4 °F 24.8 °F 93% 29.48 in 10.0 mi WNW 21.9 mph 28.8 mph N/A   Overcast
4:40 PM 26.6 °F 12.4 °F 24.8 °F 93% 29.48 in 10.0 mi West 21.9 mph 27.6 mph N/A   Overcast
5:00 PM 26.6 °F 11.7 °F 24.8 °F 93% 29.49 in 10.0 mi West 24.2 mph 29.9 mph N/A   Overcast
5:20 PM 26.6 °F 12.7 °F 24.8 °F 93% 29.48 in 10.0 mi West 20.7 mph 25.3 mph N/A   Overcast
5:40 PM 26.6 °F 13.4 °F 24.8 °F 93% 29.49 in 10.0 mi West 18.4 mph 27.6 mph N/A   Overcast
6:00 PM 26.6 °F 13.1 °F 24.8 °F 93% 29.49 in 10.0 mi WNW 19.6 mph 32.2 mph N/A   Overcast
6:20 PM 26.6 °F 12.7 °F 24.8 °F 93% 29.49 in 10.0 mi West 20.7 mph - N/A   Overcast
6:41 PM 26.6 °F 13.1 °F 24.8 °F 93% 29.50 in 10.0 mi WNW 19.6 mph 29.9 mph N/A   Overcast
7:02 PM 26.6 °F 13.1 °F 24.8 °F 93% 29.51 in 10.0 mi WNW 19.6 mph 28.8 mph N/A   Overcast
7:20 PM 24.8 °F 11.5 °F 24.8 °F 100% 29.50 in 10.0 mi WNW 17.3 mph 29.9 mph N/A   Overcast
7:40 PM 24.8 °F 9.0 °F 24.8 °F 100% 29.50 in 10.0 mi West 25.3 mph 32.2 mph N/A   Overcast
8:00 PM 24.8 °F 10.0 °F 24.8 °F 100% 29.50 in 10.0 mi West 21.9 mph 27.6 mph N/A   Overcast
8:21 PM 24.8 °F 9.6 °F 24.8 °F 100% 29.50 in 10.0 mi WNW 23.0 mph 27.6 mph N/A   Overcast
8:40 PM 24.8 °F 8.4 °F 24.8 °F 100% 29.49 in 10.0 mi WNW 27.6 mph 33.4 mph N/A   Overcast
9:03 PM 26.6 °F 12.4 °F 24.8 °F 93% 29.50 in 10.0 mi WNW 21.9 mph 29.9 mph N/A   Overcast
9:20 PM 26.6 °F 12.7 °F 24.8 °F 93% 29.50 in 10.0 mi West 20.7 mph 29.9 mph N/A   Overcast
9:40 PM 26.6 °F 13.4 °F 24.8 °F 93% 29.50 in 10.0 mi WNW 18.4 mph 33.4 mph N/A   Overcast
10:00 PM 26.6 °F 13.1 °F 24.8 °F 93% 29.50 in 10.0 mi WNW 19.6 mph 28.8 mph N/A   Overcast
10:21 PM 26.6 °F 12.4 °F 24.8 °F 93% 29.50 in 10.0 mi WNW 21.9 mph 31.1 mph N/A   Overcast
10:40 PM 26.6 °F 13.8 °F 24.8 °F 93% 29.50 in 3.0 mi WNW 17.3 mph 32.2 mph N/A   Overcast
11:00 PM 26.6 °F 13.4 °F 24.8 °F 93% 29.51 in 4.0 mi WNW 18.4 mph 26.5 mph N/A   Overcast
11:20 PM 26.6 °F 12.7 °F 24.8 °F 93% 29.51 in 2.0 mi WNW 20.7 mph 32.2 mph N/A   Overcast
11:40 PM 24.8 °F 10.0 °F 24.8 °F 100% 29.50 in 0.2 mi WNW 21.9 mph 28.8 mph N/A   Overcast